This demonstration page uses our WeatherBlox Daily Observations layout. Learn more.

Hourly Observations for March 13, 2019

Temp ( °F °C ) Dew Point ( °F °C ) Humidity (%) Winds ( mph kmh ) Pressure ( in mb ) Visibility ( mi km ) Precip ( " mm )
12:15 am 00:15 Clear 34 1 27 -3 75 75 Calm 30.39 1029 10 16.09344 0 0
12:35 am 00:35 Clear 32 0 28 -2 87 87 Calm 30.39 1029 10 16.09344 0 0
12:55 am 00:55 Clear 32 0 28 -2 87 87 W 3 6 30.36 1028 10 16.09344 0 0
1:15 am 01:15 Clear 32 0 28 -2 87 87 W 3 6 30.36 1028 10 16.09344 0 0
1:35 am 01:35 Clear 32 0 28 -2 87 87 Calm 30.39 1029 10 16.09344 0 0
1:55 am 01:55 Clear 30 -1 27 -3 86 86 W 5 7 30.39 1029 10 16.09344 0 0
2:15 am 02:15 Clear 30 -1 28 -2 93 93 W 5 7 30.39 1029 10 16.09344 0 0
2:35 am 02:35 Clear 32 0 27 -3 80 80 SW 3 6 30.39 1029 10 16.09344 0 0
2:55 am 02:55 Clear 28 -2 27 -3 93 93 W 5 7 30.39 1029 10 16.09344 0 0
3:15 am 03:15 Clear 32 0 27 -3 80 80 W 3 6 30.39 1029 10 16.09344 0 0
3:35 am 03:35 Clear 32 0 25 -4 75 75 W 3 6 30.39 1029 10 16.09344 0 0
3:55 am 03:55 Clear 32 0 25 -4 75 75 Calm 30.36 1028 10 16.09344 0 0
4:15 am 04:15 Clear 30 -1 25 -4 80 80 Calm 30.36 1028 10 16.09344 0 0
4:35 am 04:35 Clear 30 -1 27 -3 86 86 Calm 30.36 1028 10 16.09344 0 0
4:55 am 04:55 Clear 30 -1 27 -3 86 86 Calm 30.36 1028 10 16.09344 0 0
5:15 am 05:15 Clear 30 -1 27 -3 86 86 Calm 30.36 1028 10 16.09344 0 0
5:35 am 05:35 Clear 28 -2 25 -4 86 86 Calm 30.36 1028 10 16.09344 0 0
5:55 am 05:55 Clear 30 -1 27 -3 86 86 Calm 30.36 1028 10 16.09344 0 0
6:15 am 06:15 Clear 30 -1 27 -3 86 86 Calm 30.39 1029 10 16.09344 0 0
6:35 am 06:35 Clear 30 -1 27 -3 86 86 Calm 30.39 1029 10 16.09344 0 0
6:55 am 06:55 Clear 28 -2 27 -3 93 93 Calm 30.39 1029 10 16.09344 0 0
7:15 am 07:15 Clear 27 -3 25 -4 93 93 Calm 30.39 1029 10 16.09344 0 0
7:35 am 07:35 Sunny 27 -3 27 -3 100 100 Calm 30.39 1029 10 16.09344 0 0
7:55 am 07:55 Sunny 30 -1 27 -3 86 86 Calm 30.39 1029 10 16.09344 0 0
8:15 am 08:15 Sunny 32 0 27 -3 80 80 Calm 30.39 1029 10 16.09344 0 0
8:35 am 08:35 Sunny 32 0 28 -2 87 87 Calm 30.39 1029 10 16.09344 0 0
8:55 am 08:55 Sunny 34 1 28 -2 81 81 Calm 30.39 1029 10 16.09344 0 0
9:15 am 09:15 Sunny 36 2 28 -2 75 75 Calm 30.39 1029 10 16.09344 0 0
9:35 am 09:35 Sunny 37 3 28 -2 70 70 Calm 30.39 1029 10 16.09344 0 0
9:55 am 09:55 Sunny 43 6 28 -2 57 57 SSW 6 9 30.39 1029 10 16.09344 0 0
10:15 am 10:15 Sunny 45 7 28 -2 53 53 S 9 15 30.39 1029 10 16.09344 0 0
10:35 am 10:35 Sunny 48 9 28 -2 46 46 SSW 10 17 30.36 1028 10 16.09344 0 0
10:55 am 10:55 Sunny 50 10 27 -3 40 40 S 9 15 30.36 1028 10 16.09344 0 0
11:15 am 11:15 Sunny 50 10 27 -3 40 40 S 15 24 30.36 1028 10 16.09344 0 0
11:35 am 11:35 Sunny 52 11 27 -3 38 38 S 13 20 30.36 1028 10 16.09344 0 0
11:55 am 11:55 Sunny 52 11 27 -3 38 38 S 14 22 30.36 1028 10 16.09344 0 0
12:15 pm 12:15 Sunny 54 12 27 -3 35 35 SSW 10 17 30.36 1028 10 16.09344 0 0
12:35 pm 12:35 Sunny 55 13 28 -2 36 36 S 12 19 30.33 1027 10 16.09344 0 0
12:55 pm 12:55 Sunny 54 12 28 -2 38 38 S 10 17 30.33 1027 10 16.09344 0 0
1:15 pm 13:15 Sunny 55 13 28 -2 36 36 S 13 20 30.3 1026 10 16.09344 0 0
1:35 pm 13:35 Sunny 57 14 28 -2 33 33 S 17 28 30.3 1026 10 16.09344 0 0
1:55 pm 13:55 Sunny 59 15 30 -1 34 34 SSE 15 24 30.27 1025 10 16.09344 0 0
2:15 pm 14:15 Sunny 59 15 30 -1 34 34 S 12 19 30.27 1025 10 16.09344 0 0
2:35 pm 14:35 Sunny 61 16 32 0 34 34 S 15 24 30.24 1024 10 16.09344 0 0
2:55 pm 14:55 Sunny 61 16 32 0 34 34 SSW 12 19 30.24 1024 10 16.09344 0 0
3:15 pm 15:15 Sunny 61 16 32 0 34 34 S 15 24 30.24 1024 10 16.09344 0 0
3:35 pm 15:35 Sunny 61 16 32 0 34 34 SSW 14 22 30.21 1023 10 16.09344 0 0
3:55 pm 15:55 Sunny 61 16 32 0 34 34 S 16 26 30.21 1023 10 16.09344 0 0
4:15 pm 16:15 Sunny 61 16 32 0 34 34 SSW 15 24 30.21 1023 10 16.09344 0 0
4:35 pm 16:35 Sunny 63 17 32 0 32 32 S 15 24 30.21 1023 10 16.09344 0 0
4:55 pm 16:55 Partly Cloudy 63 17 32 0 32 32 SSW 13 20 30.21 1023 10 16.09344 0 0
5:15 pm 17:15 Mostly Cloudy 61 16 32 0 34 34 SSW 12 19 30.21 1023 10 16.09344 0 0
5:35 pm 17:35 Cloudy 61 16 32 0 34 34 S 8 13 30.21 1023 10 16.09344 0 0
5:55 pm 17:55 Cloudy 61 16 32 0 34 34 SSW 10 17 30.21 1023 10 16.09344 0 0
6:15 pm 18:15 Cloudy 61 16 32 0 34 34 SSW 9 15 30.21 1023 10 16.09344 0 0
6:35 pm 18:35 Cloudy 59 15 32 0 36 36 S 9 15 30.21 1023 10 16.09344 0 0
6:55 pm 18:55 Cloudy 59 15 32 0 36 36 S 7 11 30.21 1023 10 16.09344 0 0
7:15 pm 19:15 Cloudy 59 15 32 0 36 36 S 8 13 30.21 1023 10 16.09344 0 0
7:35 pm 19:35 Cloudy 59 15 32 0 36 36 S 8 13 30.21 1023 10 16.09344 0 0
7:55 pm 19:55 Cloudy 59 15 34 1 39 39 SSE 6 9 30.21 1023 10 16.09344 0 0
8:15 pm 20:15 Cloudy 57 14 32 0 39 39 SSE 8 13 30.24 1024 10 16.09344 0 0
8:35 pm 20:35 Cloudy 55 13 32 0 41 41 SE 8 13 30.24 1024 10 16.09344 0 0
8:55 pm 20:55 Cloudy 55 13 32 0 41 41 SE 7 11 30.24 1024 10 16.09344 0 0
9:15 pm 21:15 Partly Cloudy 55 13 32 0 41 41 SSE 8 13 30.24 1024 10 16.09344 0 0
9:35 pm 21:35 Partly Cloudy 55 13 32 0 41 41 SSE 7 11 30.24 1024 10 16.09344 0 0
9:55 pm 21:55 Partly Cloudy 55 13 34 1 44 44 S 7 11 30.24 1024 10 16.09344 0 0
10:15 pm 22:15 Clear 54 12 34 1 47 47 SE 5 7 30.24 1024 10 16.09344 0 0
10:35 pm 22:35 Mostly Cloudy 54 12 34 1 47 47 SSE 8 13 30.24 1024 10 16.09344 0 0
10:55 pm 22:55 Mostly Cloudy 54 12 34 1 47 47 S 6 9 30.24 1024 10 16.09344 0 0
11:15 pm 23:15 Partly Cloudy 54 12 34 1 47 47 SSE 5 7 30.24 1024 10 16.09344 0 0
11:35 pm 23:35 Partly Cloudy 52 11 34 1 50 50 SSE 7 11 30.27 1025 10 16.09344 0 0
11:55 pm 23:55 Clear 52 11 34 1 50 50 SSE 5 7 30.27 1025 10 16.09344 0 0

Powered by AerisWeather